CES7630 ZUXC-PHNL

Flight info

Callsign CES7630
Flight time N/A
Altitude 35100
Route BOPTU W162 KAKMI W144 IGNAK W179 WFX B213 ESPEG V154 SNF W269 OLPOV B213 WHA R343 PK A593 AKARA/K0915F351 A593 LAMEN/N0496F351 A593 SADLI Y590 BEDAR Y591 FUE Y23 KASTE Y81 TASOT Y57 LIGNI Y816 IPROS Y830 LAPIL OTR13 SEALS DCT 34N153E DCT 34N159E DCT 33N166E DCT 31N173E DCT 29N179E DCT 27N174W DCT 25N168W DCT CANON DCT CANON
Aircraft MD11/H-SDE1E2E3FGHIJ2J3J4J5M1RWXY/LB1D1

Departure

Time 2026-04-30 14:35
Airport Xichang Qingshan Airport (ZUXC)

Arrival

Time N/A
Airport Daniel K. Inouye International Airport (PHNL)
Time Latitude Longitude Altitude Speed Heading
2026-04-30 14:09 27.98292 102.18647 5089 ft 0 kts 88°
2026-04-30 14:25 27.98292 102.18642 5089 ft 2 kts 88°
2026-04-30 14:26 27.98276 102.18592 5094 ft 4 kts 20°
2026-04-30 14:26 27.98261 102.18588 5092 ft 0 kts 357°
2026-04-30 14:26 27.98436 102.18580 5089 ft 15 kts 358°
2026-04-30 14:27 27.98536 102.18580 5089 ft 13 kts
2026-04-30 14:27 27.98620 102.18578 5089 ft 11 kts 359°
2026-04-30 14:27 27.98693 102.18576 5089 ft 10 kts 359°
2026-04-30 14:28 27.98808 102.18574 5089 ft 7 kts 358°
2026-04-30 14:28 27.98851 102.18572 5089 ft 6 kts 357°
2026-04-30 14:28 27.98887 102.18570 5089 ft 5 kts 357°
2026-04-30 14:28 27.98922 102.18568 5089 ft 5 kts 357°
2026-04-30 14:29 27.99003 102.18564 5090 ft 6 kts 357°
2026-04-30 14:29 27.99079 102.18561 5090 ft 7 kts 358°
2026-04-30 14:30 27.99311 102.18550 5090 ft 13 kts 358°
2026-04-30 14:31 27.99517 102.18541 5090 ft 16 kts 358°
2026-04-30 14:31 27.99760 102.18531 5090 ft 19 kts 358°
2026-04-30 14:31 27.99897 102.18529 5089 ft 20 kts 359°
2026-04-30 14:32 28.00188 102.18519 5089 ft 19 kts 358°
2026-04-30 14:32 28.00321 102.18514 5089 ft 20 kts 358°
2026-04-30 14:32 28.00423 102.18509 5090 ft 10 kts 357°
2026-04-30 14:33 28.00487 102.18484 5090 ft 9 kts 309°
2026-04-30 14:33 28.00479 102.18372 5092 ft 5 kts 203°
2026-04-30 14:33 28.00425 102.18372 5091 ft 26 kts 179°
2026-04-30 14:34 27.99974 102.18390 5091 ft 102 kts 178°
2026-04-30 14:34 27.99046 102.18424 5091 ft 161 kts 178°
2026-04-30 14:34 27.97821 102.18471 5258 ft 186 kts 174°
2026-04-30 14:34 27.96502 102.18513 5615 ft 192 kts 173°
2026-04-30 14:35 27.94329 102.18648 6435 ft 186 kts 169°
2026-04-30 14:35 27.92613 102.18766 6967 ft 188 kts 169°
2026-04-30 14:35 27.91303 102.18852 7345 ft 189 kts 169°
2026-04-30 14:36 27.89971 102.18810 7687 ft 196 kts 184°
2026-04-30 14:36 27.88641 102.18381 8103 ft 201 kts 192°
2026-04-30 14:36 27.87266 102.17847 8345 ft 219 kts 192°
2026-04-30 14:36 27.85759 102.17549 8497 ft 221 kts 167°
2026-04-30 14:37 27.84385 102.18152 8814 ft 210 kts 138°
2026-04-30 14:37 27.83244 102.19177 9180 ft 210 kts 134°
2026-04-30 14:37 27.82114 102.20238 9560 ft 212 kts 134°
2026-04-30 14:37 27.80976 102.21296 9915 ft 212 kts 133°
2026-04-30 14:38 27.79961 102.22491 10146 ft 212 kts 121°
2026-04-30 14:38 27.79246 102.23955 10288 ft 215 kts 106°
2026-04-30 14:38 27.78964 102.25609 10434 ft 217 kts 90°
2026-04-30 14:38 27.79182 102.27299 10554 ft 221 kts 73°
2026-04-30 14:39 27.79789 102.28905 10688 ft 224 kts 66°
2026-04-30 14:39 27.80493 102.30509 10814 ft 230 kts 66°
2026-04-30 14:39 27.81219 102.32141 10909 ft 238 kts 65°
2026-04-30 14:40 27.82797 102.35684 11162 ft 271 kts 65°
2026-04-30 14:40 27.83683 102.37675 11309 ft 297 kts 65°
2026-04-30 14:40 27.84649 102.39843 11509 ft 319 kts 65°
2026-04-30 14:40 27.85656 102.42095 12192 ft 322 kts 64°
2026-04-30 14:41 27.86669 102.44358 12956 ft 324 kts 65°
2026-04-30 14:41 27.87691 102.46641 13716 ft 326 kts 65°
2026-04-30 14:41 27.88713 102.48930 14436 ft 326 kts 65°
2026-04-30 14:41 27.89738 102.51219 15258 ft 326 kts 64°
2026-04-30 14:42 27.90762 102.53494 16142 ft 324 kts 63°
2026-04-30 14:42 27.91785 102.55764 16947 ft 325 kts 62°
2026-04-30 14:42 27.92813 102.58043 17732 ft 326 kts 61°
2026-04-30 14:42 27.93844 102.60331 18507 ft 328 kts 60°
2026-04-30 14:43 27.94880 102.62629 19215 ft 329 kts 59°
2026-04-30 14:43 27.95924 102.64945 19835 ft 332 kts 58°
2026-04-30 14:43 27.96976 102.67280 20376 ft 335 kts 57°
2026-04-30 14:43 27.98035 102.69633 20986 ft 337 kts 57°
2026-04-30 14:44 27.99106 102.72012 21574 ft 341 kts 56°
2026-04-30 14:44 28.00186 102.74412 22110 ft 344 kts 56°
2026-04-30 14:44 28.01276 102.76835 22678 ft 347 kts 56°
2026-04-30 14:44 28.02375 102.79286 23215 ft 351 kts 56°
2026-04-30 14:45 28.03482 102.81753 23815 ft 352 kts 56°
2026-04-30 14:45 28.04585 102.84220 24520 ft 351 kts 56°
2026-04-30 14:45 28.05684 102.86679 25192 ft 349 kts 56°
2026-04-30 14:45 28.06780 102.89128 25849 ft 348 kts 56°
2026-04-30 14:46 28.07869 102.91565 26529 ft 347 kts 56°
2026-04-30 14:46 28.08957 102.93999 27073 ft 346 kts 56°
2026-04-30 14:46 28.10040 102.96423 27664 ft 344 kts 56°
2026-04-30 14:46 28.10755 102.98024 28086 ft 344 kts 56°
2026-04-30 14:47 28.12197 103.01253 28851 ft 343 kts 56°
2026-04-30 14:47 28.13272 103.03662 29389 ft 342 kts 56°
2026-04-30 14:47 28.13982 103.05254 29753 ft 341 kts 56°
2026-04-30 14:47 28.15050 103.07650 30230 ft 341 kts 56°
2026-04-30 14:48 28.16115 103.10041 30699 ft 340 kts 56°
2026-04-30 14:48 28.17539 103.13239 31255 ft 339 kts 56°
2026-04-30 14:48 28.18584 103.15590 31706 ft 337 kts 56°
2026-04-30 14:48 28.19653 103.17995 32129 ft 337 kts 56°
2026-04-30 14:49 28.20706 103.20364 32461 ft 336 kts 56°
2026-04-30 14:49 28.21401 103.21928 32725 ft 335 kts 56°
2026-04-30 14:49 28.22786 103.25050 33195 ft 334 kts 56°
2026-04-30 14:49 28.23491 103.26640 33428 ft 334 kts 56°
2026-04-30 14:50 28.25911 103.32098 34210 ft 333 kts 56°
2026-04-30 14:50 28.26613 103.33684 34381 ft 333 kts 56°
2026-04-30 14:51 28.28660 103.38355 34982 ft 332 kts 56°
2026-04-30 14:51 28.29698 103.40714 35039 ft 336 kts 56°
2026-04-30 14:52 28.32820 103.47809 35035 ft 331 kts 56°
2026-04-30 14:52 28.35893 103.54784 35024 ft 331 kts 56°
2026-04-30 14:53 28.38977 103.61789 35031 ft 331 kts 56°
2026-04-30 14:54 28.43092 103.71160 35030 ft 331 kts 56°
2026-04-30 14:55 28.46167 103.78178 35029 ft 331 kts 56°
2026-04-30 14:56 28.50266 103.87552 35024 ft 331 kts 56°
2026-04-30 14:57 28.53333 103.94578 35031 ft 332 kts 56°
2026-04-30 14:58 28.57428 104.03985 35030 ft 331 kts 57°
2026-04-30 14:58 28.60469 104.11046 35026 ft 331 kts 57°
2026-04-30 15:00 28.66136 104.22271 35029 ft 321 kts 43°
2026-04-30 15:00 28.69513 104.25533 35031 ft 317 kts 31°
2026-04-30 15:01 28.73462 104.27730 35029 ft 317 kts 20°
2026-04-30 15:01 28.80029 104.28878 35031 ft 324 kts
2026-04-30 15:02 28.84548 104.28623 35031 ft 326 kts
2026-04-30 15:03 28.95849 104.27916 35028 ft 325 kts
2026-04-30 15:04 29.07146 104.27283 35029 ft 325 kts
2026-04-30 15:06 29.18441 104.26655 35028 ft 325 kts
2026-04-30 15:07 29.27471 104.26252 35026 ft 322 kts
2026-04-30 15:08 29.36297 104.27633 35027 ft 320 kts 12°
2026-04-30 15:09 29.47303 104.29533 35030 ft 320 kts 12°
2026-04-30 15:10 29.56085 104.31034 35030 ft 320 kts 12°
2026-04-30 15:11 29.69300 104.33296 35031 ft 320 kts 12°
2026-04-30 15:13 29.80309 104.35185 35027 ft 320 kts 12°
2026-04-30 15:14 29.95724 104.37836 35030 ft 320 kts 12°
2026-04-30 15:17 30.15534 104.41264 35030 ft 320 kts 12°
2026-04-30 15:19 30.33141 104.44349 35029 ft 320 kts 12°
2026-04-30 17:39 31.61590 119.77896 34929 ft 360 kts 82°
2026-04-30 17:42 31.60232 120.07104 34930 ft 360 kts 82°
2026-04-30 17:43 31.59526 120.21761 34929 ft 360 kts 82°
2026-04-30 17:44 31.56871 120.39136 34929 ft 382 kts 98°
2026-04-30 17:47 31.48923 120.65495 34932 ft 381 kts 97°
2026-04-30 17:48 31.42792 120.85986 34929 ft 381 kts 97°
2026-04-30 17:50 31.35752 121.09344 34929 ft 381 kts 98°
2026-04-30 17:52 31.30314 121.26899 34928 ft 382 kts 98°
2026-04-30 17:54 31.23407 121.53270 34928 ft 376 kts 94°
2026-04-30 17:56 31.17756 121.76790 34926 ft 369 kts 88°
2026-04-30 17:57 31.18406 121.85204 34929 ft 342 kts 67°
2026-04-30 17:58 31.19904 121.92381 34930 ft 342 kts 68°
2026-04-30 18:00 31.24101 122.14097 34928 ft 343 kts 68°
2026-04-30 18:01 31.26674 122.27698 34928 ft 343 kts 68°
2026-04-30 18:02 31.29743 122.44031 34928 ft 343 kts 68°
2026-04-30 18:04 31.32857 122.60351 34928 ft 343 kts 68°
2026-04-30 18:06 31.37018 122.82074 34928 ft 343 kts 68°
2026-04-30 18:08 31.40710 123.01100 34928 ft 343 kts 68°
2026-04-30 18:10 31.44901 123.22867 34928 ft 343 kts 68°
2026-04-30 18:11 31.48540 123.41936 34928 ft 343 kts 68°
2026-04-30 18:13 31.51253 123.55462 34928 ft 341 kts 66°
2026-04-30 18:14 31.54230 123.68906 34928 ft 341 kts 66°
2026-04-30 18:15 31.57787 123.85049 34928 ft 341 kts 66°
2026-04-30 18:16 31.60148 123.95824 34928 ft 341 kts 66°
2026-04-30 18:17 31.61326 124.01210 34928 ft 341 kts 66°
2026-04-30 18:18 31.63114 124.09283 34928 ft 341 kts 66°
2026-04-30 18:18 31.64312 124.14667 34928 ft 341 kts 66°
2026-04-30 18:19 31.65507 124.20047 34928 ft 341 kts 66°
2026-04-30 18:19 31.66701 124.25430 34928 ft 341 kts 66°
2026-04-30 18:20 31.67893 124.30817 34928 ft 341 kts 66°
2026-04-30 18:20 31.69083 124.36203 34928 ft 341 kts 66°
2026-04-30 18:21 31.70270 124.41590 34928 ft 341 kts 66°
2026-04-30 18:21 31.71456 124.46981 34932 ft 341 kts 66°
2026-04-30 18:22 31.72639 124.52376 34928 ft 341 kts 66°
2026-04-30 18:22 31.74410 124.60467 34932 ft 341 kts 66°
2026-04-30 18:23 31.75588 124.65863 34935 ft 341 kts 66°
2026-04-30 18:23 31.76755 124.71226 34934 ft 341 kts 66°
2026-04-30 18:24 31.78514 124.79325 34930 ft 341 kts 66°
2026-04-30 18:25 31.79684 124.84726 34929 ft 341 kts 66°
2026-04-30 18:25 31.81435 124.92837 34928 ft 341 kts 67°
2026-04-30 18:26 31.82741 125.01123 34927 ft 357 kts 81°
2026-04-30 18:27 31.81508 125.10001 34929 ft 371 kts 90°
2026-04-30 18:28 31.79972 125.18900 34929 ft 370 kts 90°
2026-04-30 18:28 31.78509 125.27801 34929 ft 370 kts 89°
2026-04-30 18:29 31.76574 125.39664 34929 ft 370 kts 89°
2026-04-30 18:30 31.74630 125.51526 34929 ft 370 kts 89°
2026-04-30 18:31 31.73163 125.60421 34929 ft 370 kts 89°
2026-04-30 18:32 31.72400 125.66333 34926 ft 356 kts 79°
2026-04-30 18:32 31.72643 125.69161 34929 ft 343 kts 69°
2026-04-30 18:33 31.74449 125.77229 34928 ft 340 kts 65°
2026-04-30 18:33 31.76299 125.85281 34928 ft 341 kts 66°
2026-04-30 18:34 31.78091 125.93364 34928 ft 341 kts 66°
2026-04-30 18:35 31.79273 125.98765 34928 ft 341 kts 66°
2026-04-30 18:35 31.80452 126.04161 34928 ft 341 kts 66°
2026-04-30 18:36 31.82221 126.12260 34928 ft 341 kts 66°
2026-04-30 18:37 31.83987 126.20366 34933 ft 341 kts 66°
2026-04-30 18:37 31.85161 126.25771 34928 ft 341 kts 66°
2026-04-30 18:38 31.86332 126.31176 34928 ft 341 kts 66°
2026-04-30 18:38 31.87494 126.36549 34933 ft 341 kts 66°
2026-04-30 18:39 31.88662 126.41959 34932 ft 341 kts 66°
2026-04-30 18:39 31.89827 126.47370 34932 ft 341 kts 66°
2026-04-30 18:40 31.91000 126.52777 34928 ft 341 kts 66°
2026-04-30 18:40 31.92184 126.58180 34928 ft 341 kts 66°
2026-04-30 18:41 31.93370 126.63583 34928 ft 341 kts 66°
2026-04-30 18:41 31.94556 126.68989 34928 ft 341 kts 66°
2026-04-30 18:42 31.95741 126.74396 34928 ft 341 kts 66°
2026-04-30 18:42 31.97512 126.82504 34928 ft 341 kts 66°
2026-04-30 18:45 32.03832 127.11333 34927 ft 337 kts 62°
2026-04-30 18:46 32.05593 127.16400 34929 ft 333 kts 58°
2026-04-30 18:46 32.07483 127.21379 34929 ft 333 kts 58°
2026-04-30 18:47 32.09369 127.26362 34929 ft 333 kts 58°
2026-04-30 18:47 32.11246 127.31351 34929 ft 333 kts 58°
2026-04-30 18:48 32.13117 127.36345 34929 ft 333 kts 58°
2026-04-30 18:48 32.14970 127.41314 34929 ft 333 kts 58°
2026-04-30 18:49 32.16836 127.46313 34929 ft 333 kts 58°
2026-04-30 18:49 32.18701 127.51316 34929 ft 333 kts 58°
2026-04-30 18:50 32.20565 127.56322 34929 ft 333 kts 58°
2026-04-30 18:50 32.22427 127.61330 34929 ft 333 kts 58°
2026-04-30 18:51 32.24287 127.66338 34929 ft 333 kts 59°
2026-04-30 18:51 32.26145 127.71349 34929 ft 333 kts 59°
2026-04-30 18:52 32.28002 127.76365 34929 ft 333 kts 59°
2026-04-30 18:52 32.29857 127.81381 34929 ft 333 kts 59°
2026-04-30 18:53 32.31710 127.86400 34929 ft 333 kts 59°
2026-04-30 18:53 32.33561 127.91423 34929 ft 333 kts 59°
2026-04-30 18:54 32.35410 127.96445 34929 ft 333 kts 59°
2026-04-30 18:54 32.37257 128.01472 34929 ft 333 kts 59°
2026-04-30 18:55 32.39103 128.06501 34929 ft 333 kts 59°
2026-04-30 18:55 32.41854 128.14012 34929 ft 333 kts 59°
2026-04-30 18:56 32.44614 128.21565 34929 ft 333 kts 59°
2026-04-30 18:57 32.47354 128.29135 34929 ft 333 kts 59°
2026-04-30 18:57 32.49177 128.34184 34929 ft 333 kts 59°
2026-04-30 18:58 32.51920 128.41755 34929 ft 333 kts 59°
2026-04-30 18:59 32.54664 128.49329 34929 ft 333 kts 59°
2026-04-30 19:00 32.58316 128.59434 34929 ft 333 kts 59°
2026-04-30 19:01 32.61961 128.69547 34933 ft 334 kts 59°
2026-04-30 19:02 32.64691 128.77143 34925 ft 334 kts 59°
2026-04-30 19:03 32.68015 128.87468 34929 ft 341 kts 66°
2026-04-30 19:04 32.70229 128.98444 34930 ft 342 kts 68°
2026-04-30 19:05 32.72436 129.09389 34928 ft 342 kts 67°
2026-04-30 19:06 32.74654 129.20369 34928 ft 342 kts 67°
2026-04-30 19:06 32.76313 129.28609 34933 ft 342 kts 67°
2026-04-30 19:07 32.77966 129.36853 34928 ft 342 kts 68°
2026-04-30 19:08 32.80163 129.47853 34927 ft 342 kts 68°
2026-04-30 19:09 32.81804 129.56105 34928 ft 342 kts 68°
2026-04-30 19:09 32.82895 129.61609 34934 ft 342 kts 68°
2026-04-30 19:10 32.85038 129.72599 34931 ft 344 kts 69°
2026-04-30 19:11 32.86284 129.81035 34930 ft 346 kts 71°
2026-04-30 19:12 32.87086 129.86672 34928 ft 346 kts 71°
2026-04-30 19:12 32.87895 129.92308 34927 ft 345 kts 71°
2026-04-30 19:13 32.89515 130.03578 34927 ft 345 kts 71°
2026-04-30 19:14 32.90322 130.09213 34930 ft 346 kts 71°
2026-04-30 19:14 32.91127 130.14853 34932 ft 346 kts 71°
2026-04-30 19:15 32.91930 130.20493 34929 ft 346 kts 71°
2026-04-30 19:15 32.93129 130.28959 34933 ft 346 kts 71°
2026-04-30 19:16 32.93925 130.34602 34932 ft 346 kts 71°
2026-04-30 19:17 32.95115 130.43070 34928 ft 346 kts 71°
2026-04-30 19:17 32.96294 130.51508 34930 ft 346 kts 71°
2026-04-30 19:18 32.97472 130.59981 34929 ft 346 kts 71°
2026-04-30 19:19 32.98255 130.65634 34934 ft 346 kts 71°
2026-04-30 19:19 32.99405 130.74120 34928 ft 346 kts 71°
2026-04-30 19:20 33.00166 130.79784 34928 ft 346 kts 71°
2026-04-30 19:21 33.01319 130.88272 34931 ft 346 kts 71°
2026-04-30 19:22 33.02855 130.99591 34927 ft 346 kts 71°
2026-04-30 19:23 33.05143 131.16583 34929 ft 346 kts 71°
2026-04-30 19:24 33.06278 131.25089 34925 ft 346 kts 71°
2026-04-30 19:25 33.08150 131.39229 34928 ft 346 kts 71°
2026-04-30 19:26 33.09626 131.50586 34931 ft 346 kts 71°
2026-04-30 19:27 33.10741 131.59101 34931 ft 347 kts 71°
2026-04-30 19:28 33.11853 131.67620 34928 ft 347 kts 71°
2026-04-30 19:29 33.13327 131.78988 34926 ft 346 kts 71°
2026-04-30 19:30 33.14791 131.90353 34928 ft 347 kts 71°
2026-04-30 19:31 33.16245 132.01729 34928 ft 347 kts 71°
2026-04-30 19:31 33.17329 132.10263 34928 ft 347 kts 71°
2026-04-30 19:32 33.18032 132.15921 34928 ft 347 kts 72°
2026-04-30 19:32 33.18736 132.21618 34928 ft 347 kts 72°
2026-04-30 19:33 33.19445 132.27314 34928 ft 347 kts 72°
2026-04-30 19:33 33.20155 132.33010 34928 ft 347 kts 72°
2026-04-30 19:34 33.20865 132.38708 34929 ft 347 kts 72°
2026-04-30 19:35 33.21925 132.47261 34928 ft 347 kts 72°
2026-04-30 19:35 33.22628 132.52960 34927 ft 347 kts 72°
2026-04-30 19:36 33.23211 132.57698 34930 ft 347 kts 72°
2026-04-30 19:36 33.24245 132.66258 34927 ft 347 kts 72°
2026-04-30 19:37 33.24935 132.71967 34931 ft 347 kts 72°
2026-04-30 19:37 33.25625 132.77673 34932 ft 347 kts 72°
2026-04-30 19:38 33.26315 132.83382 34934 ft 347 kts 72°
2026-04-30 19:38 33.27002 132.89091 34924 ft 347 kts 72°
2026-04-30 19:39 33.27687 132.94804 34927 ft 347 kts 72°
2026-04-30 19:39 33.28369 133.00519 34922 ft 348 kts 72°
2026-04-30 19:40 33.29049 133.06247 34929 ft 348 kts 72°
2026-04-30 19:40 33.29715 133.11968 34935 ft 347 kts 72°
2026-04-30 19:41 33.30383 133.17685 34930 ft 347 kts 72°
2026-04-30 19:41 33.31053 133.23409 34924 ft 347 kts 72°
2026-04-30 19:42 33.31721 133.29127 34928 ft 347 kts 72°
2026-04-30 19:42 33.32388 133.34847 34928 ft 347 kts 72°
2026-04-30 19:43 33.33051 133.40568 34928 ft 347 kts 72°
2026-04-30 19:44 33.34037 133.49117 34928 ft 348 kts 72°
2026-04-30 19:44 33.34695 133.54844 34931 ft 348 kts 72°
2026-04-30 19:45 33.35349 133.60570 34929 ft 348 kts 72°
2026-04-30 19:45 33.36001 133.66299 34928 ft 348 kts 72°
2026-04-30 19:46 33.36651 133.72029 34928 ft 348 kts 72°
2026-04-30 19:46 33.37297 133.77759 34928 ft 348 kts 72°
2026-04-30 19:47 33.37942 133.83492 34928 ft 348 kts 72°
2026-04-30 19:47 33.38583 133.89227 34933 ft 348 kts 72°
2026-04-30 19:48 33.39222 133.94963 34928 ft 348 kts 72°
2026-04-30 19:48 33.39859 134.00699 34928 ft 348 kts 72°
2026-04-30 19:49 33.40482 134.06441 34933 ft 348 kts 73°
2026-04-30 19:49 33.41402 134.15058 34931 ft 348 kts 73°
2026-04-30 19:50 33.42024 134.20806 34919 ft 348 kts 73°
2026-04-30 19:50 33.42648 134.26552 34928 ft 348 kts 72°
2026-04-30 19:51 33.43266 134.32259 34928 ft 348 kts 73°
2026-04-30 19:51 33.43885 134.38002 34928 ft 348 kts 73°
2026-04-30 19:52 33.44502 134.43751 34931 ft 348 kts 73°
2026-04-30 19:52 33.45117 134.49500 34928 ft 348 kts 73°
2026-04-30 19:53 33.45722 134.55252 34928 ft 348 kts 73°
2026-04-30 19:53 33.46322 134.61006 34928 ft 348 kts 73°
2026-04-30 19:54 33.46925 134.66763 34928 ft 348 kts 73°
2026-04-30 19:54 33.47528 134.72514 34929 ft 348 kts 73°
2026-04-30 19:55 33.48129 134.78273 34928 ft 348 kts 73°
2026-04-30 19:55 33.48728 134.84027 34928 ft 348 kts 73°
2026-04-30 19:56 33.49324 134.89786 34929 ft 348 kts 73°
2026-04-30 19:56 33.49918 134.95546 34929 ft 348 kts 73°
2026-04-30 19:57 33.50499 135.01309 34928 ft 349 kts 73°
2026-04-30 19:57 33.51080 135.07075 34928 ft 348 kts 73°
2026-04-30 19:58 33.51663 135.12840 34928 ft 348 kts 73°
2026-04-30 19:58 33.52240 135.18566 34928 ft 349 kts 73°
2026-04-30 19:59 33.52820 135.24333 34928 ft 349 kts 73°
2026-04-30 20:00 33.53685 135.32984 34929 ft 349 kts 73°
2026-04-30 20:00 33.54259 135.38755 34929 ft 349 kts 73°
2026-04-30 20:01 33.55114 135.47414 34929 ft 349 kts 73°
2026-04-30 20:01 33.55681 135.53184 34928 ft 349 kts 73°
2026-04-30 20:02 33.56527 135.61850 34930 ft 349 kts 73°
2026-04-30 20:03 33.57367 135.70522 34931 ft 349 kts 73°
2026-04-30 20:03 33.57923 135.76302 34930 ft 349 kts 73°
2026-04-30 20:04 33.58477 135.82084 34928 ft 349 kts 73°
2026-04-30 20:05 33.59302 135.90757 34925 ft 349 kts 73°
2026-04-30 20:05 33.60106 135.99436 34931 ft 349 kts 74°
2026-04-30 20:06 33.60631 136.05229 34929 ft 349 kts 73°
2026-04-30 20:06 33.61164 136.11019 34929 ft 349 kts 73°
2026-04-30 20:07 33.61699 136.16804 34929 ft 349 kts 73°
2026-04-30 20:08 33.62501 136.25491 34929 ft 349 kts 73°
2026-04-30 20:08 33.63032 136.31280 34929 ft 349 kts 73°
2026-04-30 20:09 33.63560 136.37071 34929 ft 349 kts 73°
2026-04-30 20:09 33.64344 136.45723 34929 ft 349 kts 74°
2026-04-30 20:10 33.65126 136.54416 34929 ft 349 kts 74°
2026-04-30 20:11 33.65902 136.63113 34929 ft 349 kts 74°
2026-04-30 20:11 33.66416 136.68913 34929 ft 349 kts 74°
2026-04-30 20:12 33.67181 136.77613 34928 ft 349 kts 74°
2026-04-30 20:13 33.67688 136.83414 34929 ft 349 kts 74°
2026-04-30 20:13 33.68193 136.89217 34929 ft 350 kts 74°
2026-04-30 20:14 33.68693 136.95023 34929 ft 350 kts 74°
2026-04-30 20:14 33.69169 137.00836 34929 ft 350 kts 74°
2026-04-30 20:15 33.69652 137.06649 34933 ft 350 kts 74°
2026-04-30 20:15 33.70132 137.12459 34928 ft 351 kts 75°
2026-04-30 20:16 33.70395 137.18342 34929 ft 354 kts 77°
2026-04-30 20:16 33.70567 137.24247 34929 ft 354 kts 77°
2026-04-30 20:17 33.70737 137.30154 34929 ft 354 kts 77°
2026-04-30 20:17 33.70911 137.36059 34929 ft 354 kts 77°
2026-04-30 20:18 33.71084 137.41965 34929 ft 354 kts 77°
2026-04-30 20:18 33.71254 137.47832 34929 ft 354 kts 77°
2026-04-30 20:19 33.71423 137.53740 34935 ft 354 kts 77°
2026-04-30 20:19 33.71589 137.59648 34929 ft 354 kts 77°
2026-04-30 20:20 33.71752 137.65558 34929 ft 354 kts 77°
2026-04-30 20:20 33.71912 137.71466 34933 ft 354 kts 78°
2026-04-30 20:21 33.72069 137.77378 34929 ft 354 kts 78°
2026-04-30 20:21 33.72224 137.83292 34929 ft 354 kts 78°
2026-04-30 20:22 33.72376 137.89202 34929 ft 354 kts 78°
2026-04-30 20:22 33.72525 137.95117 34929 ft 354 kts 78°
2026-04-30 20:23 33.72671 138.01032 34929 ft 354 kts 78°
2026-04-30 20:23 33.72814 138.06948 34929 ft 354 kts 78°
2026-04-30 20:24 33.72952 138.12864 34929 ft 355 kts 78°
2026-04-30 20:24 33.73067 138.18787 34929 ft 355 kts 78°
2026-04-30 20:25 33.73251 138.27668 34935 ft 354 kts 78°
2026-04-30 20:26 33.73421 138.35548 34929 ft 354 kts 78°
2026-04-30 20:26 33.73630 138.45387 34929 ft 354 kts 78°
2026-04-30 20:27 33.74328 138.51095 34926 ft 335 kts 61°
2026-04-30 20:27 33.76482 138.55938 34928 ft 327 kts 52°
2026-04-30 20:28 33.80924 138.64454 34928 ft 327 kts 52°
2026-04-30 20:30 33.86831 138.76124 34933 ft 328 kts 52°
2026-04-30 20:31 33.93899 138.90217 34927 ft 328 kts 52°
2026-04-30 20:32 33.99776 139.01982 34928 ft 328 kts 52°
2026-04-30 20:33 34.03297 139.09048 34927 ft 328 kts 52°
2026-04-30 20:34 34.06815 139.16122 34927 ft 328 kts 52°
2026-04-30 20:35 34.10313 139.23171 34927 ft 328 kts 52°
2026-04-30 20:35 34.13813 139.30265 34927 ft 328 kts 53°
2026-04-30 20:36 34.16141 139.35004 34934 ft 328 kts 53°
2026-04-30 20:37 34.19639 139.42103 34927 ft 328 kts 53°
2026-04-30 20:37 34.21973 139.46839 34927 ft 328 kts 53°
2026-04-30 20:38 34.24306 139.51576 34927 ft 328 kts 53°
2026-04-30 20:38 34.26636 139.56316 34927 ft 328 kts 53°
2026-04-30 20:39 34.30130 139.63432 34931 ft 328 kts 53°
2026-04-30 20:40 34.33620 139.70555 34927 ft 328 kts 53°
2026-04-30 20:40 34.35943 139.75305 34931 ft 328 kts 53°
2026-04-30 20:41 34.39426 139.82438 34932 ft 328 kts 53°
2026-04-30 20:41 34.41746 139.87197 34927 ft 328 kts 53°
2026-04-30 20:42 34.44064 139.91958 34931 ft 328 kts 53°
2026-04-30 20:43 34.47538 139.99105 34927 ft 328 kts 53°
2026-04-30 20:43 34.49851 140.03874 34932 ft 328 kts 53°
2026-04-30 20:44 34.53303 140.11001 34927 ft 328 kts 53°
2026-04-30 20:45 34.57898 140.20577 34933 ft 328 kts 53°
2026-04-30 20:45 34.60197 140.25364 34934 ft 328 kts 53°
2026-04-30 20:46 34.64801 140.34941 34927 ft 328 kts 53°
2026-04-30 20:47 34.68250 140.42126 34931 ft 328 kts 53°
2026-04-30 20:48 34.71101 140.49767 34932 ft 340 kts 66°
2026-04-30 20:48 34.72241 140.55369 34928 ft 342 kts 68°
2026-04-30 20:49 34.73346 140.60989 34928 ft 342 kts 67°
2026-04-30 20:50 34.75033 140.69409 34928 ft 342 kts 67°
2026-04-30 20:50 34.76164 140.75018 34928 ft 342 kts 67°
2026-04-30 20:51 34.77295 140.80630 34928 ft 342 kts 67°
2026-04-30 20:51 34.78987 140.89051 34933 ft 342 kts 67°
2026-04-30 20:52 34.80112 140.94664 34928 ft 342 kts 67°
2026-04-30 20:53 34.81787 141.03054 34928 ft 342 kts 67°
2026-04-30 20:53 34.82906 141.08674 34928 ft 342 kts 67°
2026-04-30 20:54 34.84580 141.17109 34928 ft 342 kts 67°
2026-04-30 20:55 34.86248 141.25548 34928 ft 342 kts 67°
2026-04-30 20:55 34.87357 141.31178 34928 ft 342 kts 67°
2026-04-30 20:56 34.89015 141.39625 34928 ft 342 kts 67°
2026-04-30 20:57 34.90656 141.48082 34930 ft 342 kts 68°
2026-04-30 20:57 34.91735 141.53729 34930 ft 342 kts 68°
2026-04-30 20:58 34.93369 141.62194 34928 ft 342 kts 68°
2026-04-30 20:58 34.94460 141.67836 34928 ft 342 kts 68°
2026-04-30 20:59 34.96093 141.76303 34930 ft 342 kts 68°
2026-04-30 21:00 34.98263 141.87599 34928 ft 342 kts 68°
2026-04-30 21:01 34.99877 141.96038 34933 ft 342 kts 68°
2026-04-30 21:02 35.01492 142.04521 34934 ft 342 kts 68°
2026-04-30 21:02 35.02566 142.10179 34928 ft 342 kts 68°
2026-04-30 21:03 35.03637 142.15838 34928 ft 342 kts 68°
2026-04-30 21:03 35.04706 142.21499 34930 ft 342 kts 68°
2026-04-30 21:04 35.05772 142.27162 34931 ft 342 kts 68°
2026-04-30 21:04 35.07366 142.35660 34928 ft 342 kts 68°
2026-04-30 21:05 35.08426 142.41328 34928 ft 342 kts 68°
2026-04-30 21:05 35.09470 142.47003 34928 ft 343 kts 68°
2026-04-30 21:06 35.10505 142.52686 34932 ft 343 kts 68°
2026-04-30 21:06 35.11548 142.58364 34928 ft 343 kts 68°
2026-04-30 21:07 35.12595 142.64043 34928 ft 343 kts 68°
2026-04-30 21:07 35.13641 142.69721 34933 ft 343 kts 68°
2026-04-30 21:08 35.14685 142.75401 34928 ft 343 kts 68°
2026-04-30 21:08 35.15727 142.81083 34928 ft 343 kts 68°
2026-04-30 21:09 35.16767 142.86769 34933 ft 343 kts 68°
2026-04-30 21:09 35.17803 142.92453 34930 ft 343 kts 68°
2026-04-30 21:10 35.18837 142.98142 34928 ft 343 kts 68°
2026-04-30 21:10 35.19868 143.03832 34928 ft 343 kts 68°
2026-04-30 21:11 35.20897 143.09524 34931 ft 343 kts 68°
2026-04-30 21:11 35.21923 143.15216 34928 ft 343 kts 68°
2026-04-30 21:12 35.22940 143.20875 34928 ft 343 kts 68°
2026-04-30 21:12 35.23962 143.26574 34928 ft 343 kts 68°
2026-04-30 21:13 35.24980 143.32275 34928 ft 343 kts 69°
2026-04-30 21:13 35.25506 143.38170 34929 ft 353 kts 77°
2026-04-30 21:14 35.25658 143.44195 34929 ft 354 kts 78°
2026-04-30 21:14 35.25795 143.50221 34929 ft 354 kts 78°
2026-04-30 21:15 35.25948 143.56241 34929 ft 354 kts 78°
2026-04-30 21:15 35.26107 143.62262 34929 ft 354 kts 78°
2026-04-30 21:16 35.26239 143.67268 34929 ft 354 kts 78°
2026-04-30 21:16 35.26422 143.74305 34929 ft 354 kts 78°
2026-04-30 21:17 35.26550 143.79311 34929 ft 354 kts 78°
2026-04-30 21:17 35.26702 143.85335 34929 ft 354 kts 78°
2026-04-30 21:18 35.26850 143.91358 34929 ft 354 kts 78°
2026-04-30 21:18 35.26995 143.97384 34929 ft 354 kts 78°
2026-04-30 21:19 35.27137 144.03410 34929 ft 354 kts 78°